Time,TemperatureF,DewpointF,PressureIn,WindDirection,WindDirectionDegrees,WindSpeedMPH,WindSpeedGustMPH,Humidity,HourlyPrecipIn,Conditions,Clouds,dailyrainin,SoftwareType,DateUTC
2013-05-06 00:00:00,47.9,42.0,29.97,ENE,61,0.0,2.0,80,0.00,,SKC,0.00,VWS V14.01,2013-05-06 05:00:00,
2013-05-06 00:03:00,48.1,41.9,29.97,ENE,61,0.0,2.0,79,0.00,,SKC,0.00,VWS V14.01,2013-05-06 05:03:00,
2013-05-06 00:08:00,47.8,41.9,29.97,ENE,61,1.0,1.0,80,0.00,,SKC,0.00,VWS V14.01,2013-05-06 05:08:00,
2013-05-06 00:13:00,47.6,41.8,29.97,ENE,61,0.0,1.0,80,0.00,,SKC,0.00,VWS V14.01,2013-05-06 05:13:00,
2013-05-06 00:18:00,47.2,41.4,29.97,ENE,61,0.0,1.0,80,0.00,,SKC,0.00,VWS V14.01,2013-05-06 05:18:00,
2013-05-06 00:23:00,46.9,41.1,29.97,ENE,61,0.0,4.0,80,0.00,,SKC,0.00,VWS V14.01,2013-05-06 05:23:00,
2013-05-06 00:28:00,46.8,41.3,29.97,ENE,61,0.0,4.0,81,0.00,,SKC,0.00,VWS V14.01,2013-05-06 05:28:00,
2013-05-06 00:30:00,46.4,41.2,29.97,ENE,61,0.0,4.0,82,0.00,,SKC,0.00,VWS V14.01,2013-05-06 05:30:00,
2013-05-06 00:33:00,46.5,41.0,29.97,ENE,61,0.0,4.0,81,0.00,,SKC,0.00,VWS V14.01,2013-05-06 05:33:00,
2013-05-06 00:38:00,46.3,41.1,29.97,ENE,61,1.0,1.0,82,0.00,,SKC,0.00,VWS V14.01,2013-05-06 05:38:00,
2013-05-06 00:43:00,46.1,40.9,29.98,ENE,61,0.0,2.0,82,0.00,,SKC,0.00,VWS V14.01,2013-05-06 05:43:00,
2013-05-06 00:48:00,46.0,40.8,29.98,ENE,61,0.0,2.0,82,0.00,,SKC,0.00,VWS V14.01,2013-05-06 05:48:00,
2013-05-06 00:53:00,45.9,40.7,29.97,ENE,61,0.0,2.0,82,0.00,,SKC,0.00,VWS V14.01,2013-05-06 05:53:00,
2013-05-06 00:58:00,45.7,40.8,29.97,ENE,61,0.0,5.0,83,0.00,,SKC,0.00,VWS V14.01,2013-05-06 05:58:00,
2013-05-06 01:00:00,45.6,40.7,29.97,ENE,61,0.0,5.0,83,0.00,,SKC,0.00,VWS V14.01,2013-05-06 06:00:00,
2013-05-06 01:03:00,45.6,40.7,29.97,ENE,61,0.0,5.0,83,0.00,,SKC,0.00,VWS V14.01,2013-05-06 06:03:00,
2013-05-06 01:08:00,45.5,40.7,29.97,ENE,61,0.0,2.0,83,0.00,,SKC,0.00,VWS V14.01,2013-05-06 06:08:00,
2013-05-06 01:13:00,45.4,40.5,29.97,ENE,61,2.0,6.0,83,0.00,,SKC,0.00,VWS V14.01,2013-05-06 06:13:00,
2013-05-06 01:18:00,45.2,40.3,29.97,ENE,61,0.0,6.0,83,0.00,,SKC,0.00,VWS V14.01,2013-05-06 06:18:00,
2013-05-06 01:23:00,45.1,40.6,29.97,ENE,61,0.0,6.0,84,0.00,,SKC,0.00,VWS V14.01,2013-05-06 06:23:00,
2013-05-06 01:28:00,45.0,40.2,29.97,ENE,61,0.0,6.0,83,0.00,,SKC,0.00,VWS V14.01,2013-05-06 06:28:00,
2013-05-06 01:30:00,44.9,40.4,29.97,ENE,61,0.0,6.0,84,0.00,,SKC,0.00,VWS V14.01,2013-05-06 06:30:00,
2013-05-06 01:34:00,45.0,40.2,29.97,ENE,61,0.0,6.0,83,0.00,,SKC,0.00,VWS V14.01,2013-05-06 06:34:00,
2013-05-06 01:39:00,44.8,40.3,29.97,ENE,61,0.0,1.0,84,0.00,,SKC,0.00,VWS V14.01,2013-05-06 06:39:00,
2013-05-06 01:44:00,44.6,40.1,29.97,ENE,61,0.0,1.0,84,0.00,,SKC,0.00,VWS V14.01,2013-05-06 06:44:00,
2013-05-06 01:49:00,44.3,40.1,29.97,ENE,61,0.0,1.0,85,0.00,,SKC,0.00,VWS V14.01,2013-05-06 06:49:00,
2013-05-06 01:54:00,44.1,39.9,29.97,ENE,61,0.0,1.0,85,0.00,,SKC,0.00,VWS V14.01,2013-05-06 06:54:00,
2013-05-06 01:59:00,43.9,39.7,29.97,ENE,61,0.0,1.0,85,0.00,,SKC,0.00,VWS V14.01,2013-05-06 06:59:00,
2013-05-06 02:00:00,43.7,39.5,29.97,ENE,61,0.0,1.0,85,0.00,,SKC,0.00,VWS V14.01,2013-05-06 07:00:00,
2013-05-06 02:04:00,43.8,39.6,29.97,ENE,61,0.0,1.0,85,0.00,,SKC,0.00,VWS V14.01,2013-05-06 07:04:00,
2013-05-06 02:09:00,43.7,39.8,29.97,ENE,61,0.0,1.0,86,0.00,,SKC,0.00,VWS V14.01,2013-05-06 07:09:00,
2013-05-06 02:14:00,43.6,39.4,29.97,ENE,61,0.0,2.0,85,0.00,,SKC,0.00,VWS V14.01,2013-05-06 07:14:00,
2013-05-06 02:19:00,43.5,39.6,29.97,ENE,61,0.0,2.0,86,0.00,,SKC,0.00,VWS V14.01,2013-05-06 07:19:00,
2013-05-06 02:24:00,43.4,39.5,29.97,ENE,61,0.0,2.0,86,0.00,,SKC,0.00,VWS V14.01,2013-05-06 07:24:00,
2013-05-06 02:29:00,43.3,39.4,29.98,ENE,61,0.0,2.0,86,0.00,,SKC,0.00,VWS V14.01,2013-05-06 07:29:00,
2013-05-06 02:30:00,43.1,39.2,29.97,ENE,61,0.0,4.0,86,0.00,,SKC,0.00,VWS V14.01,2013-05-06 07:30:00,
2013-05-06 02:34:00,43.2,39.3,29.97,ENE,61,0.0,4.0,86,0.00,,SKC,0.00,VWS V14.01,2013-05-06 07:34:00,
2013-05-06 02:39:00,43.1,39.5,29.97,ENE,61,0.0,1.0,87,0.00,,SKC,0.00,VWS V14.01,2013-05-06 07:39:00,
2013-05-06 02:44:00,43.0,39.4,29.97,ENE,61,0.0,3.0,87,0.00,,SKC,0.00,VWS V14.01,2013-05-06 07:44:00,
2013-05-06 02:49:00,42.8,39.2,29.97,ENE,61,0.0,4.0,87,0.00,,SKC,0.00,VWS V14.01,2013-05-06 07:49:00,
2013-05-06 02:54:00,42.7,39.4,29.97,ENE,61,0.0,4.0,88,0.00,,SKC,0.00,VWS V14.01,2013-05-06 07:54:00,
2013-05-06 02:59:00,42.6,39.3,29.97,ENE,61,2.0,4.0,88,0.00,,SKC,0.00,VWS V14.01,2013-05-06 07:59:00,
2013-05-06 03:00:00,42.7,39.7,29.97,ENE,61,5.0,5.0,89,0.00,,SKC,0.00,VWS V14.01,2013-05-06 08:00:00,
2013-05-06 03:04:00,42.7,39.7,29.97,ENE,61,2.0,5.0,89,0.00,,SKC,0.00,VWS V14.01,2013-05-06 08:04:00,
2013-05-06 03:09:00,42.7,39.7,29.96,ENE,61,3.0,5.0,89,0.00,,SKC,0.00,VWS V14.01,2013-05-06 08:09:00,
2013-05-06 03:14:00,42.7,39.7,29.96,ENE,61,0.0,5.0,89,0.00,,SKC,0.00,VWS V14.01,2013-05-06 08:14:00,
2013-05-06 03:19:00,42.7,39.4,29.96,ENE,61,2.0,5.0,88,0.00,,SKC,0.00,VWS V14.01,2013-05-06 08:19:00,
2013-05-06 03:24:00,42.6,39.3,29.96,ENE,61,0.0,5.0,88,0.00,,SKC,0.00,VWS V14.01,2013-05-06 08:24:00,
2013-05-06 03:29:00,42.5,39.5,29.97,ENE,61,0.0,5.0,89,0.00,,SKC,0.00,VWS V14.01,2013-05-06 08:29:00,
2013-05-06 03:30:00,42.4,39.1,29.97,ENE,61,0.0,5.0,88,0.00,,SKC,0.00,VWS V14.01,2013-05-06 08:30:00,
2013-05-06 03:34:00,42.4,39.1,29.97,ENE,61,0.0,5.0,88,0.00,,SKC,0.00,VWS V14.01,2013-05-06 08:34:00,
2013-05-06 03:39:00,42.3,39.0,29.97,ENE,61,0.0,0.0,88,0.00,,SKC,0.00,VWS V14.01,2013-05-06 08:39:00,
2013-05-06 03:44:00,42.0,38.7,29.97,ENE,61,0.0,0.0,88,0.00,,SKC,0.00,VWS V14.01,2013-05-06 08:44:00,
2013-05-06 03:49:00,41.6,38.3,29.97,ENE,61,0.0,1.0,88,0.00,,SKC,0.00,VWS V14.01,2013-05-06 08:49:00,
2013-05-06 03:54:00,41.3,38.3,29.97,ENE,61,0.0,2.0,89,0.00,,SKC,0.00,VWS V14.01,2013-05-06 08:54:00,
2013-05-06 03:59:00,41.2,38.2,29.97,ENE,61,0.0,2.0,89,0.00,,SKC,0.00,VWS V14.01,2013-05-06 08:59:00,
2013-05-06 04:00:00,40.6,37.6,29.97,ENE,61,0.0,2.0,89,0.00,,SKC,0.00,VWS V14.01,2013-05-06 09:00:00,
2013-05-06 04:04:00,40.8,37.8,29.97,ENE,61,0.0,2.0,89,0.00,,SKC,0.00,VWS V14.01,2013-05-06 09:04:00,
2013-05-06 04:09:00,40.4,37.4,29.97,ENE,61,0.0,1.0,89,0.00,,SKC,0.00,VWS V14.01,2013-05-06 09:09:00,
2013-05-06 04:14:00,40.4,37.7,29.97,ENE,61,0.0,1.0,90,0.00,,SKC,0.00,VWS V14.01,2013-05-06 09:14:00,
2013-05-06 04:19:00,40.4,37.7,29.97,ENE,61,1.0,1.0,90,0.00,,SKC,0.00,VWS V14.01,2013-05-06 09:19:00,
2013-05-06 04:24:00,40.3,37.9,29.97,ENE,61,0.0,1.0,91,0.00,,SKC,0.00,VWS V14.01,2013-05-06 09:24:00,
2013-05-06 04:29:00,40.3,37.9,29.97,ENE,61,0.0,1.0,91,0.00,,SKC,0.00,VWS V14.01,2013-05-06 09:29:00,
2013-05-06 04:30:00,40.2,37.8,29.97,ENE,61,0.0,1.0,91,0.00,,SKC,0.00,VWS V14.01,2013-05-06 09:30:00,
2013-05-06 04:34:00,40.2,37.8,29.97,ENE,61,0.0,1.0,91,0.00,,SKC,0.00,VWS V14.01,2013-05-06 09:34:00,
2013-05-06 04:40:00,40.1,37.7,29.97,ENE,61,0.0,1.0,91,0.00,,SKC,0.00,VWS V14.01,2013-05-06 09:40:00,
2013-05-06 04:45:00,40.0,37.6,29.97,ENE,61,0.0,2.0,91,0.00,,SKC,0.00,VWS V14.01,2013-05-06 09:45:00,
2013-05-06 04:50:00,40.0,37.6,29.97,ENE,61,0.0,2.0,91,0.00,,SKC,0.00,VWS V14.01,2013-05-06 09:50:00,
2013-05-06 04:55:00,39.8,37.4,29.97,ENE,61,0.0,2.0,91,0.00,,SKC,0.00,VWS V14.01,2013-05-06 09:55:00,
2013-05-06 05:00:00,39.7,37.3,29.97,ENE,61,0.0,5.0,91,0.00,,SKC,0.00,VWS V14.01,2013-05-06 10:00:00,
2013-05-06 05:05:00,39.5,37.1,29.97,ENE,61,0.0,5.0,91,0.00,,SKC,0.00,VWS V14.01,2013-05-06 10:05:00,
2013-05-06 05:10:00,39.4,37.0,29.98,ENE,61,5.0,5.0,91,0.00,,SKC,0.00,VWS V14.01,2013-05-06 10:10:00,
2013-05-06 05:15:00,39.2,36.8,29.98,ENE,61,0.0,6.0,91,0.00,,SKC,0.00,VWS V14.01,2013-05-06 10:15:00,
2013-05-06 05:20:00,39.1,36.7,29.98,ENE,61,0.0,6.0,91,0.00,,SKC,0.00,VWS V14.01,2013-05-06 10:20:00,
2013-05-06 05:25:00,39.0,36.6,29.98,ENE,61,0.0,6.0,91,0.00,,SKC,0.00,VWS V14.01,2013-05-06 10:25:00,
2013-05-06 05:30:00,38.9,36.5,29.98,ENE,61,0.0,6.0,91,0.00,,SKC,0.00,VWS V14.01,2013-05-06 10:30:00,
2013-05-06 05:35:00,38.8,36.4,29.99,ENE,61,0.0,6.0,91,0.00,,SKC,0.00,VWS V14.01,2013-05-06 10:35:00,
2013-05-06 05:40:00,38.8,36.7,29.99,ENE,61,0.0,2.0,92,0.00,,SKC,0.00,VWS V14.01,2013-05-06 10:40:00,
2013-05-06 05:45:00,38.7,36.6,29.99,ENE,61,2.0,4.0,92,0.00,,SKC,0.00,VWS V14.01,2013-05-06 10:45:00,
2013-05-06 05:50:00,38.6,36.5,29.99,ENE,61,0.0,4.0,92,0.00,,SKC,0.00,VWS V14.01,2013-05-06 10:50:00,
2013-05-06 05:55:00,38.4,36.3,29.99,ENE,61,0.0,4.0,92,0.00,,SKC,0.00,VWS V14.01,2013-05-06 10:55:00,
2013-05-06 06:00:00,38.3,36.2,29.99,ENE,61,1.0,4.0,92,0.00,,SKC,0.00,VWS V14.01,2013-05-06 11:00:00,
2013-05-06 06:05:00,38.2,36.1,29.99,ENE,61,0.0,5.0,92,0.00,,SKC,0.00,VWS V14.01,2013-05-06 11:05:00,
2013-05-06 06:10:00,38.1,36.0,29.99,ENE,61,0.0,2.0,92,0.00,,SKC,0.00,VWS V14.01,2013-05-06 11:10:00,
2013-05-06 06:15:00,38.0,35.9,30.00,ENE,61,3.0,4.0,92,0.00,,SKC,0.00,VWS V14.01,2013-05-06 11:15:00,
2013-05-06 06:20:00,38.0,35.9,30.00,ENE,61,0.0,4.0,92,0.00,,SKC,0.00,VWS V14.01,2013-05-06 11:20:00,
2013-05-06 06:25:00,38.2,36.1,30.00,ENE,61,0.0,4.0,92,0.00,,SKC,0.00,VWS V14.01,2013-05-06 11:25:00,
2013-05-06 06:30:00,38.3,36.2,30.00,ENE,61,0.0,4.0,92,0.00,,SKC,0.00,VWS V14.01,2013-05-06 11:30:00,
2013-05-06 06:35:00,38.6,36.8,30.00,ENE,61,0.0,4.0,93,0.00,,SKC,0.00,VWS V14.01,2013-05-06 11:35:00,
2013-05-06 06:40:00,38.8,37.0,30.00,ENE,61,0.0,1.0,93,0.00,,SKC,0.00,VWS V14.01,2013-05-06 11:40:00,
2013-05-06 06:45:00,39.1,37.2,30.00,ENE,61,0.0,1.0,93,0.00,,SKC,0.00,VWS V14.01,2013-05-06 11:45:00,
2013-05-06 06:50:00,39.4,37.5,30.00,ENE,61,0.0,1.0,93,0.00,,SKC,0.00,VWS V14.01,2013-05-06 11:50:00,
2013-05-06 06:55:00,39.6,37.5,30.00,ENE,61,0.0,1.0,92,0.00,,SKC,0.00,VWS V14.01,2013-05-06 11:55:00,
2013-05-06 07:00:00,39.9,37.8,30.00,ENE,61,4.0,4.0,92,0.00,,SKC,0.00,VWS V14.01,2013-05-06 12:00:00,
2013-05-06 07:05:00,40.1,38.0,30.00,ENE,61,0.0,4.0,92,0.00,,SKC,0.00,VWS V14.01,2013-05-06 12:05:00,
2013-05-06 07:10:00,40.5,38.4,30.00,ENE,61,0.0,2.0,92,0.00,,SKC,0.00,VWS V14.01,2013-05-06 12:10:00,
2013-05-06 07:15:00,40.9,38.5,30.00,ENE,61,0.0,2.0,91,0.00,,SKC,0.00,VWS V14.01,2013-05-06 12:15:00,
2013-05-06 07:20:00,41.3,38.9,30.00,ENE,61,0.0,2.0,91,0.00,,SKC,0.00,VWS V14.01,2013-05-06 12:20:00,
2013-05-06 07:25:00,41.7,39.3,30.00,ENE,61,0.0,2.0,91,0.00,,SKC,0.00,VWS V14.01,2013-05-06 12:25:00,
2013-05-06 07:30:00,42.2,39.8,30.01,ENE,61,0.0,4.0,91,0.00,,SKC,0.00,VWS V14.01,2013-05-06 12:30:00,
2013-05-06 07:35:00,42.6,39.9,30.01,ENE,61,1.0,4.0,90,0.00,,SKC,0.00,VWS V14.01,2013-05-06 12:35:00,
2013-05-06 07:40:00,43.2,40.5,30.01,ENE,61,4.0,5.0,90,0.00,,SKC,0.00,VWS V14.01,2013-05-06 12:40:00,
2013-05-06 07:46:00,43.8,40.8,30.01,ENE,61,4.0,5.0,89,0.00,,SKC,0.00,VWS V14.01,2013-05-06 12:46:00,
2013-05-06 07:51:00,44.3,41.0,30.01,ENE,61,2.0,7.0,88,0.00,,SKC,0.00,VWS V14.01,2013-05-06 12:51:00,
2013-05-06 07:56:00,44.6,41.0,30.00,ENE,61,4.0,7.0,87,0.00,,SKC,0.00,VWS V14.01,2013-05-06 12:56:00,
2013-05-06 08:00:00,45.6,41.4,30.01,ENE,61,4.0,7.0,85,0.00,,SKC,0.00,VWS V14.01,2013-05-06 13:00:00,
2013-05-06 08:01:00,45.1,41.2,30.01,ENE,61,5.0,7.0,86,0.00,,SKC,0.00,VWS V14.01,2013-05-06 13:01:00,
2013-05-06 08:06:00,45.6,41.4,30.01,ENE,61,5.0,7.0,85,0.00,,SKC,0.00,VWS V14.01,2013-05-06 13:06:00,
2013-05-06 08:11:00,46.0,41.8,30.01,ENE,61,4.0,5.0,85,0.00,,SKC,0.00,VWS V14.01,2013-05-06 13:11:00,
2013-05-06 08:16:00,46.4,41.8,30.01,ENE,61,2.0,5.0,84,0.00,,SKC,0.00,VWS V14.01,2013-05-06 13:16:00,
2013-05-06 08:21:00,46.9,42.0,30.00,ENE,61,1.0,5.0,83,0.00,,SKC,0.00,VWS V14.01,2013-05-06 13:21:00,
2013-05-06 08:26:00,47.5,42.6,30.00,ENE,61,0.0,5.0,83,0.00,,SKC,0.00,VWS V14.01,2013-05-06 13:26:00,
2013-05-06 08:30:00,49.0,43.4,30.00,ENE,61,0.0,5.0,81,0.00,,SKC,0.00,VWS V14.01,2013-05-06 13:30:00,
2013-05-06 08:31:00,48.2,43.0,30.00,ENE,61,0.0,5.0,82,0.00,,SKC,0.00,VWS V14.01,2013-05-06 13:31:00,
2013-05-06 08:36:00,49.0,43.4,30.00,ENE,61,0.0,5.0,81,0.00,,SKC,0.00,VWS V14.01,2013-05-06 13:36:00,
2013-05-06 08:41:00,49.7,43.1,30.00,ENE,61,0.0,0.0,78,0.00,,SKC,0.00,VWS V14.01,2013-05-06 13:41:00,
2013-05-06 08:46:00,50.1,43.2,30.00,ENE,61,0.0,0.0,77,0.00,,SKC,0.00,VWS V14.01,2013-05-06 13:46:00,
2013-05-06 08:51:00,50.5,43.2,30.00,ENE,61,0.0,0.0,76,0.00,,SKC,0.00,VWS V14.01,2013-05-06 13:51:00,
2013-05-06 08:56:00,50.9,43.3,30.00,ENE,61,0.0,1.0,75,0.00,,SKC,0.00,VWS V14.01,2013-05-06 13:56:00,
2013-05-06 09:00:00,51.2,43.6,30.00,ENE,61,0.0,2.0,75,0.00,,SKC,0.00,VWS V14.01,2013-05-06 14:00:00,
2013-05-06 09:01:00,51.2,43.6,30.00,ENE,61,0.0,2.0,75,0.00,,SKC,0.00,VWS V14.01,2013-05-06 14:01:00,
2013-05-06 09:06:00,51.2,43.6,30.00,ENE,61,0.0,1.0,75,0.00,,SKC,0.00,VWS V14.01,2013-05-06 14:06:00,
2013-05-06 09:11:00,51.4,44.1,30.00,ENE,61,0.0,3.0,76,0.00,,SKC,0.00,VWS V14.01,2013-05-06 14:11:00,
2013-05-06 09:16:00,51.8,44.5,30.00,ENE,61,1.0,4.0,76,0.00,,SKC,0.00,VWS V14.01,2013-05-06 14:16:00,
2013-05-06 09:21:00,52.2,44.9,30.00,ENE,61,1.0,4.0,76,0.00,,SKC,0.00,VWS V14.01,2013-05-06 14:21:00,
2013-05-06 09:27:00,52.7,45.0,29.99,ENE,61,0.0,4.0,75,0.00,,SKC,0.00,VWS V14.01,2013-05-06 14:27:00,
2013-05-06 09:30:00,53.4,45.0,30.00,ENE,61,0.0,4.0,73,0.00,,SKC,0.00,VWS V14.01,2013-05-06 14:30:00,
2013-05-06 09:32:00,53.0,45.0,29.99,ENE,61,0.0,4.0,74,0.00,,SKC,0.00,VWS V14.01,2013-05-06 14:32:00,
2013-05-06 09:37:00,53.5,45.1,29.99,ENE,61,1.0,1.0,73,0.00,,SKC,0.00,VWS V14.01,2013-05-06 14:37:00,
2013-05-06 09:42:00,53.9,45.1,29.99,ENE,61,2.0,4.0,72,0.00,,SKC,0.00,VWS V14.01,2013-05-06 14:42:00,
2013-05-06 09:47:00,54.5,46.0,29.99,ENE,61,0.0,4.0,73,0.00,,SKC,0.00,VWS V14.01,2013-05-06 14:47:00,
2013-05-06 09:52:00,54.9,45.7,29.99,ENE,61,0.0,4.0,71,0.00,,SKC,0.00,VWS V14.01,2013-05-06 14:52:00,
2013-05-06 09:57:00,55.2,46.0,29.99,ENE,61,1.0,4.0,71,0.00,,SKC,0.00,VWS V14.01,2013-05-06 14:57:00,
2013-05-06 10:00:00,56.2,46.6,29.98,ENE,61,2.0,4.0,70,0.00,,SKC,0.00,VWS V14.01,2013-05-06 15:00:00,
2013-05-06 10:02:00,55.6,46.0,29.99,ENE,61,0.0,4.0,70,0.00,,SKC,0.00,VWS V14.01,2013-05-06 15:02:00,
2013-05-06 10:07:00,56.3,46.7,29.99,ENE,61,3.0,4.0,70,0.00,,SKC,0.00,VWS V14.01,2013-05-06 15:07:00,
2013-05-06 10:12:00,56.8,46.8,29.99,ENE,61,1.0,5.0,69,0.00,,SKC,0.00,VWS V14.01,2013-05-06 15:12:00,
2013-05-06 10:17:00,57.3,46.8,29.99,ENE,61,2.0,5.0,68,0.00,,SKC,0.00,VWS V14.01,2013-05-06 15:17:00,
2013-05-06 10:22:00,57.7,47.2,29.99,ENE,61,1.0,6.0,68,0.00,,SKC,0.00,VWS V14.01,2013-05-06 15:22:00,
2013-05-06 10:27:00,58.1,47.2,29.98,ENE,61,0.0,6.0,67,0.00,,SKC,0.00,VWS V14.01,2013-05-06 15:27:00,
2013-05-06 10:30:00,59.0,47.7,29.98,ENE,61,2.0,6.0,66,0.00,,SKC,0.00,VWS V14.01,2013-05-06 15:30:00,
2013-05-06 10:32:00,58.7,48.2,29.98,ENE,61,1.0,6.0,68,0.00,,SKC,0.00,VWS V14.01,2013-05-06 15:32:00,
2013-05-06 10:37:00,59.0,47.3,29.98,ENE,61,0.0,3.0,65,0.00,,SKC,0.00,VWS V14.01,2013-05-06 15:37:00,
2013-05-06 10:42:00,59.8,48.0,29.98,ENE,61,0.0,4.0,65,0.00,,SKC,0.00,VWS V14.01,2013-05-06 15:42:00,
2013-05-06 10:47:00,60.3,48.1,29.98,ENE,61,0.0,4.0,64,0.00,,SKC,0.00,VWS V14.01,2013-05-06 15:47:00,
2013-05-06 10:52:00,60.8,47.7,29.98,ENE,61,0.0,4.0,62,0.00,,SKC,0.00,VWS V14.01,2013-05-06 15:52:00,
2013-05-06 10:57:00,61.0,48.3,29.98,ENE,61,0.0,4.0,63,0.00,,SKC,0.00,VWS V14.01,2013-05-06 15:57:00,
2013-05-06 11:00:00,61.3,48.6,29.97,ENE,61,0.0,4.0,63,0.00,,SKC,0.00,VWS V14.01,2013-05-06 16:00:00,
2013-05-06 11:02:00,61.1,48.0,29.97,ENE,61,0.0,4.0,62,0.00,,SKC,0.00,VWS V14.01,2013-05-06 16:02:00,
2013-05-06 11:07:00,61.4,47.8,29.98,ENE,61,0.0,0.0,61,0.00,,SKC,0.00,VWS V14.01,2013-05-06 16:07:00,
2013-05-06 11:12:00,61.5,48.4,29.97,ENE,61,0.0,1.0,62,0.00,,SKC,0.00,VWS V14.01,2013-05-06 16:12:00,
2013-05-06 11:17:00,60.3,47.7,29.97,ENE,61,0.0,1.0,63,0.00,,SKC,0.00,VWS V14.01,2013-05-06 16:17:00,
2013-05-06 11:22:00,59.7,47.9,29.97,ENE,61,0.0,1.0,65,0.00,,SKC,0.00,VWS V14.01,2013-05-06 16:22:00,
2013-05-06 11:27:00,60.4,48.6,29.97,ENE,61,0.0,2.0,65,0.00,,SKC,0.00,VWS V14.01,2013-05-06 16:27:00,
2013-05-06 11:30:00,61.0,48.8,29.97,ENE,61,0.0,2.0,64,0.00,,SKC,0.00,VWS V14.01,2013-05-06 16:30:00,
2013-05-06 11:32:00,60.9,48.2,29.97,ENE,61,0.0,2.0,63,0.00,,SKC,0.00,VWS V14.01,2013-05-06 16:32:00,
2013-05-06 11:37:00,61.0,49.2,29.97,ENE,61,0.0,0.0,65,0.00,,SKC,0.00,VWS V14.01,2013-05-06 16:37:00,
2013-05-06 11:42:00,61.7,48.6,29.97,ENE,61,2.0,5.0,62,0.00,,SKC,0.00,VWS V14.01,2013-05-06 16:42:00,
2013-05-06 11:47:00,62.6,49.0,29.97,ENE,61,0.0,5.0,61,0.00,,SKC,0.00,VWS V14.01,2013-05-06 16:47:00,
2013-05-06 11:52:00,63.6,50.4,29.96,ENE,61,0.0,5.0,62,0.00,,SKC,0.00,VWS V14.01,2013-05-06 16:52:00,
2013-05-06 11:57:00,64.6,49.5,29.96,ENE,61,0.0,5.0,58,0.00,,SKC,0.00,VWS V14.01,2013-05-06 16:57:00,
2013-05-06 12:00:00,66.0,49.4,29.95,ENE,61,0.0,5.0,55,0.00,,SKC,0.00,VWS V14.01,2013-05-06 17:00:00,
2013-05-06 12:02:00,65.6,50.9,29.95,ENE,61,0.0,5.0,59,0.00,,SKC,0.00,VWS V14.01,2013-05-06 17:02:00,
2013-05-06 12:07:00,66.0,49.4,29.95,ENE,61,0.0,1.0,55,0.00,,SKC,0.00,VWS V14.01,2013-05-06 17:07:00,
2013-05-06 12:13:00,66.5,51.3,29.95,ENE,61,0.0,1.0,58,0.00,,SKC,0.00,VWS V14.01,2013-05-06 17:13:00,
2013-05-06 12:18:00,66.9,51.2,29.95,ENE,61,2.0,4.0,57,0.00,,SKC,0.00,VWS V14.01,2013-05-06 17:18:00,
2013-05-06 12:23:00,67.6,51.4,29.95,ENE,61,0.0,4.0,56,0.00,,SKC,0.00,VWS V14.01,2013-05-06 17:23:00,
2013-05-06 12:28:00,68.7,51.9,29.95,ENE,61,0.0,4.0,55,0.00,,SKC,0.00,VWS V14.01,2013-05-06 17:28:00,
2013-05-06 12:30:00,70.4,52.0,29.95,ENE,61,0.0,4.0,52,0.00,,SKC,0.00,VWS V14.01,2013-05-06 17:30:00,
2013-05-06 12:33:00,69.8,51.9,29.95,ENE,61,0.0,4.0,53,0.00,,SKC,0.00,VWS V14.01,2013-05-06 17:33:00,
2013-05-06 12:38:00,70.8,53.3,29.95,ENE,61,0.0,0.0,54,0.00,,SKC,0.00,VWS V14.01,2013-05-06 17:38:00,
2013-05-06 12:43:00,71.6,53.1,29.94,ENE,61,0.0,1.0,52,0.00,,SKC,0.00,VWS V14.01,2013-05-06 17:43:00,
2013-05-06 12:48:00,71.3,52.8,29.94,ENE,61,0.0,1.0,52,0.00,,SKC,0.00,VWS V14.01,2013-05-06 17:48:00,
2013-05-06 12:53:00,68.8,52.5,29.94,ENE,61,1.0,5.0,56,0.00,,SKC,0.00,VWS V14.01,2013-05-06 17:53:00,
2013-05-06 12:58:00,67.7,51.0,29.94,ENE,61,1.0,5.0,55,0.00,,SKC,0.00,VWS V14.01,2013-05-06 17:58:00,
2013-05-06 13:00:00,66.8,51.1,29.94,ENE,61,0.0,5.0,57,0.00,,SKC,0.00,VWS V14.01,2013-05-06 18:00:00,
2013-05-06 13:03:00,66.9,50.7,29.94,ENE,61,4.0,5.0,56,0.00,,SKC,0.00,VWS V14.01,2013-05-06 18:03:00,
2013-05-06 13:08:00,66.9,51.7,29.94,ENE,61,0.0,2.0,58,0.00,,SKC,0.00,VWS V14.01,2013-05-06 18:08:00,
2013-05-06 13:13:00,67.2,51.5,29.94,ENE,61,1.0,2.0,57,0.00,,SKC,0.00,VWS V14.01,2013-05-06 18:13:00,
2013-05-06 13:18:00,67.0,51.3,29.94,ENE,61,0.0,2.0,57,0.00,,SKC,0.00,VWS V14.01,2013-05-06 18:18:00,
2013-05-06 13:23:00,67.4,51.2,29.94,ENE,61,1.0,2.0,56,0.00,,SKC,0.00,VWS V14.01,2013-05-06 18:23:00,
2013-05-06 13:28:00,68.0,50.8,29.94,ENE,61,0.0,2.0,54,0.00,,SKC,0.00,VWS V14.01,2013-05-06 18:28:00,
2013-05-06 13:30:00,68.6,50.8,29.94,ENE,61,0.0,2.0,53,0.00,,SKC,0.00,VWS V14.01,2013-05-06 18:30:00,
2013-05-06 13:33:00,68.7,50.9,29.94,ENE,61,0.0,2.0,53,0.00,,SKC,0.00,VWS V14.01,2013-05-06 18:33:00,
2013-05-06 13:38:00,69.0,51.2,29.93,ENE,61,1.0,2.0,53,0.00,,SKC,0.00,VWS V14.01,2013-05-06 18:38:00,
2013-05-06 13:43:00,69.5,51.6,29.93,ENE,61,0.0,5.0,53,0.00,,SKC,0.00,VWS V14.01,2013-05-06 18:43:00,
2013-05-06 13:48:00,70.3,51.9,29.93,ENE,61,0.0,5.0,52,0.00,,SKC,0.00,VWS V14.01,2013-05-06 18:48:00,
2013-05-06 13:53:00,71.9,53.3,29.92,ENE,61,0.0,5.0,52,0.00,,SKC,0.00,VWS V14.01,2013-05-06 18:53:00,
2013-05-06 13:58:00,73.9,53.6,29.92,ENE,61,0.0,5.0,49,0.00,,SKC,0.00,VWS V14.01,2013-05-06 18:58:00,
2013-05-06 14:00:00,75.9,53.7,29.92,ENE,61,0.0,5.0,46,0.00,,SKC,0.00,VWS V14.01,2013-05-06 19:00:00,
2013-05-06 14:03:00,75.4,53.8,29.92,ENE,61,0.0,5.0,47,0.00,,SKC,0.00,VWS V14.01,2013-05-06 19:03:00,
2013-05-06 14:08:00,76.4,53.5,29.92,ENE,61,0.0,1.0,45,0.00,,SKC,0.00,VWS V14.01,2013-05-06 19:08:00,
2013-05-06 14:13:00,77.1,54.2,29.92,ENE,61,0.0,1.0,45,0.00,,SKC,0.00,VWS V14.01,2013-05-06 19:13:00,
2013-05-06 14:18:00,77.6,54.0,29.92,ENE,61,0.0,1.0,44,0.00,,SKC,0.00,VWS V14.01,2013-05-06 19:18:00,
2013-05-06 14:24:00,78.0,53.1,29.91,ENE,61,0.0,1.0,42,0.00,,SKC,0.00,VWS V14.01,2013-05-06 19:24:00,
2013-05-06 14:29:00,78.3,53.3,29.91,ENE,61,0.0,1.0,42,0.00,,SKC,0.00,VWS V14.01,2013-05-06 19:29:00,
2013-05-06 14:30:00,76.9,50.8,29.91,ENE,61,0.0,6.0,40,0.00,,SKC,0.00,VWS V14.01,2013-05-06 19:30:00,
2013-05-06 14:34:00,78.4,52.8,29.91,ENE,61,4.0,6.0,41,0.00,,SKC,0.00,VWS V14.01,2013-05-06 19:34:00,
2013-05-06 14:39:00,75.4,50.7,29.91,ENE,65,6.0,6.0,42,0.00,,SKC,0.00,VWS V14.01,2013-05-06 19:39:00,
2013-05-06 14:44:00,73.3,50.7,29.91,SSE,155,0.0,7.0,45,0.00,,SKC,0.00,VWS V14.01,2013-05-06 19:44:00,
2013-05-06 14:49:00,72.8,50.8,29.91,SSE,163,5.0,7.0,46,0.00,,SKC,0.00,VWS V14.01,2013-05-06 19:49:00,
2013-05-06 14:54:00,72.9,49.7,29.90,South,182,3.0,7.0,44,0.00,,SKC,0.00,VWS V14.01,2013-05-06 19:54:00,
2013-05-06 14:59:00,73.2,51.2,29.91,South,182,0.0,7.0,46,0.00,,SKC,0.00,VWS V14.01,2013-05-06 19:59:00,
2013-05-06 15:00:00,72.7,50.2,29.90,SSW,194,0.0,9.0,45,0.00,,SKC,0.00,VWS V14.01,2013-05-06 20:00:00,
2013-05-06 15:04:00,72.9,50.3,29.90,South,191,1.0,9.0,45,0.00,,SKC,0.00,VWS V14.01,2013-05-06 20:04:00,
2013-05-06 15:09:00,72.8,50.2,29.90,SSW,194,4.0,6.0,45,0.00,,SKC,0.00,VWS V14.01,2013-05-06 20:09:00,
2013-05-06 15:14:00,72.5,50.6,29.90,SSW,194,4.0,7.0,46,0.00,,SKC,0.00,VWS V14.01,2013-05-06 20:14:00,
2013-05-06 15:19:00,72.5,50.0,29.90,SSW,195,3.0,7.0,45,0.00,,SKC,0.00,VWS V14.01,2013-05-06 20:19:00,
2013-05-06 15:24:00,72.8,50.2,29.90,SSW,195,1.0,7.0,45,0.00,,SKC,0.00,VWS V14.01,2013-05-06 20:24:00,
2013-05-06 15:29:00,73.3,50.7,29.90,SSW,195,0.0,7.0,45,0.00,,SKC,0.00,VWS V14.01,2013-05-06 20:29:00,
2013-05-06 15:30:00,74.1,51.4,29.90,SSW,195,0.0,7.0,45,0.00,,SKC,0.00,VWS V14.01,2013-05-06 20:30:00,
2013-05-06 15:34:00,74.0,50.7,29.90,SSW,195,1.0,7.0,44,0.00,,SKC,0.00,VWS V14.01,2013-05-06 20:34:00,
2013-05-06 15:39:00,73.5,50.3,29.90,SSW,203,3.0,8.0,44,0.00,,SKC,0.00,VWS V14.01,2013-05-06 20:39:00,
2013-05-06 15:44:00,73.2,50.0,29.89,SSW,203,0.0,8.0,44,0.00,,SKC,0.00,VWS V14.01,2013-05-06 20:44:00,
2013-05-06 15:49:00,73.6,51.6,29.89,SSW,203,0.0,8.0,46,0.00,,SKC,0.00,VWS V14.01,2013-05-06 20:49:00,
2013-05-06 15:54:00,74.2,50.9,29.89,SSW,203,4.0,8.0,44,0.00,,SKC,0.00,VWS V14.01,2013-05-06 20:54:00,
2013-05-06 15:59:00,74.2,50.3,29.89,SSW,202,4.0,8.0,43,0.00,,SKC,0.00,VWS V14.01,2013-05-06 20:59:00,
2013-05-06 16:00:00,73.3,49.5,29.89,SSW,202,1.0,8.0,43,0.00,,SKC,0.00,VWS V14.01,2013-05-06 21:00:00,
2013-05-06 16:04:00,73.8,49.3,29.89,SSW,202,7.0,8.0,42,0.00,,SKC,0.00,VWS V14.01,2013-05-06 21:04:00,
2013-05-06 16:09:00,73.4,50.2,29.89,SSW,202,0.0,2.0,44,0.00,,SKC,0.00,VWS V14.01,2013-05-06 21:09:00,
2013-05-06 16:14:00,74.3,51.0,29.88,SSW,202,0.0,4.0,44,0.00,,SKC,0.00,VWS V14.01,2013-05-06 21:14:00,
2013-05-06 16:19:00,75.1,49.8,29.88,SSW,202,5.0,6.0,41,0.00,,SKC,0.00,VWS V14.01,2013-05-06 21:19:00,
2013-05-06 16:24:00,74.3,49.1,29.88,SSW,202,5.0,7.0,41,0.00,,SKC,0.00,VWS V14.01,2013-05-06 21:24:00,
2013-05-06 16:29:00,73.5,49.0,29.88,SSW,202,3.0,7.0,42,0.00,,SKC,0.00,VWS V14.01,2013-05-06 21:29:00,
2013-05-06 16:30:00,74.0,48.2,29.88,SSW,195,0.0,7.0,40,0.00,,SKC,0.00,VWS V14.01,2013-05-06 21:30:00,
2013-05-06 16:34:00,73.9,48.1,29.88,SSW,195,4.0,7.0,40,0.00,,SKC,0.00,VWS V14.01,2013-05-06 21:34:00,
2013-05-06 16:39:00,74.0,48.8,29.88,SSW,195,0.0,5.0,41,0.00,,SKC,0.00,VWS V14.01,2013-05-06 21:39:00,
2013-05-06 16:44:00,74.2,49.0,29.88,SSW,195,0.0,5.0,41,0.00,,SKC,0.00,VWS V14.01,2013-05-06 21:44:00,
2013-05-06 16:49:00,74.2,50.3,29.88,SSW,195,0.0,5.0,43,0.00,,SKC,0.00,VWS V14.01,2013-05-06 21:49:00,
2013-05-06 16:54:00,74.2,49.0,29.88,SSW,195,6.0,6.0,41,0.00,,SKC,0.00,VWS V14.01,2013-05-06 21:54:00,
2013-05-06 16:59:00,73.6,48.5,29.88,SSW,202,5.0,7.0,41,0.00,,SKC,0.00,VWS V14.01,2013-05-06 21:59:00,
2013-05-06 17:00:00,73.5,49.0,29.88,SSW,210,1.0,7.0,42,0.00,,SKC,0.00,VWS V14.01,2013-05-06 22:00:00,
2013-05-06 17:04:00,73.4,48.9,29.88,SSW,202,0.0,7.0,42,0.00,,SKC,0.00,VWS V14.01,2013-05-06 22:04:00,
2013-05-06 17:09:00,73.6,48.5,29.88,SSW,210,2.0,4.0,41,0.00,,SKC,0.00,VWS V14.01,2013-05-06 22:09:00,
2013-05-06 17:14:00,73.5,49.7,29.88,SSW,210,0.0,5.0,43,0.00,,SKC,0.00,VWS V14.01,2013-05-06 22:14:00,
2013-05-06 17:19:00,73.3,48.8,29.88,SSW,210,0.0,5.0,42,0.00,,SKC,0.00,VWS V14.01,2013-05-06 22:19:00,
2013-05-06 17:25:00,72.8,48.4,29.88,SSW,210,0.0,5.0,42,0.00,,SKC,0.00,VWS V14.01,2013-05-06 22:25:00,
2013-05-06 17:30:00,72.6,48.2,29.88,SSW,210,0.0,5.0,42,0.00,,SKC,0.00,VWS V14.01,2013-05-06 22:30:00,
2013-05-06 17:35:00,72.7,48.9,29.88,SSW,210,0.0,5.0,43,0.00,,SKC,0.00,VWS V14.01,2013-05-06 22:35:00,
2013-05-06 17:40:00,72.8,49.0,29.88,SSW,210,0.0,1.0,43,0.00,,SKC,0.00,VWS V14.01,2013-05-06 22:40:00,
2013-05-06 17:45:00,72.9,49.7,29.88,SSW,210,0.0,1.0,44,0.00,,SKC,0.00,VWS V14.01,2013-05-06 22:45:00,
2013-05-06 17:50:00,73.1,49.9,29.88,SSW,210,2.0,2.0,44,0.00,,SKC,0.00,VWS V14.01,2013-05-06 22:50:00,
2013-05-06 17:55:00,73.2,49.4,29.88,SSW,210,0.0,2.0,43,0.00,,SKC,0.00,VWS V14.01,2013-05-06 22:55:00,
2013-05-06 18:00:00,73.2,49.4,29.88,SSW,210,0.0,2.0,43,0.00,,SKC,0.00,VWS V14.01,2013-05-06 23:00:00,
2013-05-06 18:05:00,73.2,50.6,29.88,SSW,210,0.0,2.0,45,0.00,,SKC,0.00,VWS V14.01,2013-05-06 23:05:00,
2013-05-06 18:10:00,72.7,50.2,29.87,SSW,210,0.0,4.0,45,0.00,,SKC,0.00,VWS V14.01,2013-05-06 23:10:00,
2013-05-06 18:15:00,72.3,49.2,29.87,SSW,210,0.0,4.0,44,0.00,,SKC,0.00,VWS V14.01,2013-05-06 23:15:00,
2013-05-06 18:20:00,72.2,49.1,29.87,SSW,210,0.0,4.0,44,0.00,,SKC,0.00,VWS V14.01,2013-05-06 23:20:00,
2013-05-06 18:25:00,72.3,50.4,29.87,SSW,210,0.0,4.0,46,0.00,,SKC,0.00,VWS V14.01,2013-05-06 23:25:00,
2013-05-06 18:30:00,72.3,49.2,29.87,SSW,210,0.0,4.0,44,0.00,,SKC,0.00,VWS V14.01,2013-05-06 23:30:00,
2013-05-06 18:35:00,72.2,49.7,29.87,SSW,210,0.0,4.0,45,0.00,,SKC,0.00,VWS V14.01,2013-05-06 23:35:00,
2013-05-06 18:40:00,72.2,50.3,29.87,SSW,210,0.0,0.0,46,0.00,,SKC,0.00,VWS V14.01,2013-05-06 23:40:00,
2013-05-06 18:45:00,72.0,50.1,29.87,SSW,210,3.0,3.0,46,0.00,,SKC,0.00,VWS V14.01,2013-05-06 23:45:00,
2013-05-06 18:50:00,71.8,49.3,29.87,SSW,210,0.0,6.0,45,0.00,,SKC,0.00,VWS V14.01,2013-05-06 23:50:00,
2013-05-06 18:55:00,71.8,49.9,29.87,SSW,210,0.0,6.0,46,0.00,,SKC,0.00,VWS V14.01,2013-05-06 23:55:00,
2013-05-06 19:00:00,71.7,50.4,29.87,SSW,210,0.0,6.0,47,0.00,,SKC,0.00,VWS V14.01,2013-05-07 00:00:00,
2013-05-06 19:05:00,71.3,49.5,29.87,SSW,210,0.0,6.0,46,0.00,,SKC,0.00,VWS V14.01,2013-05-07 00:05:00,
2013-05-06 19:10:00,71.0,49.8,29.86,SSW,210,0.0,3.0,47,0.00,,SKC,0.00,VWS V14.01,2013-05-07 00:10:00,
2013-05-06 19:15:00,70.6,48.8,29.86,SSW,210,0.0,4.0,46,0.00,,SKC,0.00,VWS V14.01,2013-05-07 00:15:00,
2013-05-06 19:20:00,70.3,49.7,29.86,SSW,210,0.0,4.0,48,0.00,,SKC,0.00,VWS V14.01,2013-05-07 00:20:00,
2013-05-06 19:25:00,70.0,50.0,29.86,SSW,210,0.0,4.0,49,0.00,,SKC,0.00,VWS V14.01,2013-05-07 00:25:00,
2013-05-06 19:30:00,69.7,49.7,29.86,SSW,210,0.0,4.0,49,0.00,,SKC,0.00,VWS V14.01,2013-05-07 00:30:00,
2013-05-06 19:35:00,69.4,49.4,29.86,SSW,210,0.0,4.0,49,0.00,,SKC,0.00,VWS V14.01,2013-05-07 00:35:00,
2013-05-06 19:40:00,69.2,49.2,29.86,SSW,210,0.0,0.0,49,0.00,,SKC,0.00,VWS V14.01,2013-05-07 00:40:00,
2013-05-06 19:45:00,69.0,49.6,29.87,SSW,210,0.0,0.0,50,0.00,,SKC,0.00,VWS V14.01,2013-05-07 00:45:00,
2013-05-06 19:50:00,68.8,49.4,29.87,SSW,210,0.0,0.0,50,0.00,,SKC,0.00,VWS V14.01,2013-05-07 00:50:00,
2013-05-06 19:55:00,68.7,48.8,29.86,SSW,210,0.0,0.0,49,0.00,,SKC,0.00,VWS V14.01,2013-05-07 00:55:00,
2013-05-06 20:00:00,68.6,48.7,29.87,SSW,210,0.0,0.0,49,0.00,,SKC,0.00,VWS V14.01,2013-05-07 01:00:00,
2013-05-06 20:05:00,68.4,48.5,29.87,SSW,210,0.0,0.0,49,0.00,,SKC,0.00,VWS V14.01,2013-05-07 01:05:00,
2013-05-06 20:10:00,68.1,48.8,29.86,SSW,210,0.0,0.0,50,0.00,,SKC,0.00,VWS V14.01,2013-05-07 01:10:00,
2013-05-06 20:15:00,67.8,48.5,29.86,SSW,210,0.0,0.0,50,0.00,,SKC,0.00,VWS V14.01,2013-05-07 01:15:00,
2013-05-06 20:20:00,67.6,48.3,29.86,SSW,210,0.0,0.0,50,0.00,,SKC,0.00,VWS V14.01,2013-05-07 01:20:00,
2013-05-06 20:25:00,67.3,48.0,29.86,SSW,210,0.0,0.0,50,0.00,,SKC,0.00,VWS V14.01,2013-05-07 01:25:00,
2013-05-06 20:30:00,66.8,48.1,29.86,SSW,210,0.0,0.0,51,0.00,,SKC,0.00,VWS V14.01,2013-05-07 01:30:00,
2013-05-06 20:31:00,67.1,48.4,29.86,SSW,210,0.0,0.0,51,0.00,,SKC,0.00,VWS V14.01,2013-05-07 01:31:00,
2013-05-06 20:36:00,66.8,48.1,29.86,SSW,210,0.0,0.0,51,0.00,,SKC,0.00,VWS V14.01,2013-05-07 01:36:00,
2013-05-06 20:41:00,66.5,47.8,29.87,SSW,210,0.0,0.0,51,0.00,,SKC,0.00,VWS V14.01,2013-05-07 01:41:00,
2013-05-06 20:46:00,66.1,48.0,29.87,SSW,210,0.0,0.0,52,0.00,,SKC,0.00,VWS V14.01,2013-05-07 01:46:00,
2013-05-06 20:51:00,65.8,48.2,29.86,SSW,210,0.0,0.0,53,0.00,,SKC,0.00,VWS V14.01,2013-05-07 01:51:00,
2013-05-06 20:56:00,65.5,47.9,29.87,SSW,210,0.0,0.0,53,0.00,,SKC,0.00,VWS V14.01,2013-05-07 01:56:00,
2013-05-06 21:00:00,64.3,47.8,29.87,SSW,210,0.0,0.0,55,0.00,,SKC,0.00,VWS V14.01,2013-05-07 02:00:00,
2013-05-06 21:01:00,64.9,47.9,29.87,SSW,210,0.0,0.0,54,0.00,,SKC,0.00,VWS V14.01,2013-05-07 02:01:00,
2013-05-06 21:06:00,64.4,47.9,29.87,SSW,210,0.0,0.0,55,0.00,,SKC,0.00,VWS V14.01,2013-05-07 02:06:00,
2013-05-06 21:11:00,63.9,47.4,29.87,SSW,210,0.0,0.0,55,0.00,,SKC,0.00,VWS V14.01,2013-05-07 02:11:00,
2013-05-06 21:16:00,63.4,47.5,29.87,SSW,210,0.0,0.0,56,0.00,,SKC,0.00,VWS V14.01,2013-05-07 02:16:00,
2013-05-06 21:21:00,63.1,47.6,29.87,SSW,210,0.0,0.0,57,0.00,,SKC,0.00,VWS V14.01,2013-05-07 02:21:00,
2013-05-06 21:26:00,62.9,47.5,29.87,SSW,210,0.0,0.0,57,0.00,,SKC,0.00,VWS V14.01,2013-05-07 02:26:00,
2013-05-06 21:30:00,62.5,47.5,29.88,SSW,210,0.0,0.0,58,0.00,,SKC,0.00,VWS V14.01,2013-05-07 02:30:00,
2013-05-06 21:31:00,62.7,47.3,29.87,SSW,210,0.0,0.0,57,0.00,,SKC,0.00,VWS V14.01,2013-05-07 02:31:00,
2013-05-06 21:36:00,62.6,47.6,29.88,SSW,210,0.0,0.0,58,0.00,,SKC,0.00,VWS V14.01,2013-05-07 02:36:00,
2013-05-06 21:41:00,62.0,47.5,29.88,SSW,210,0.0,0.0,59,0.00,,SKC,0.00,VWS V14.01,2013-05-07 02:41:00,
2013-05-06 21:46:00,61.4,47.4,29.88,SSW,210,0.0,0.0,60,0.00,,SKC,0.00,VWS V14.01,2013-05-07 02:46:00,
2013-05-06 21:51:00,60.5,47.4,29.88,SSW,210,0.0,0.0,62,0.00,,SKC,0.00,VWS V14.01,2013-05-07 02:51:00,
2013-05-06 21:56:00,60.0,47.4,29.88,SSW,210,0.0,0.0,63,0.00,,SKC,0.00,VWS V14.01,2013-05-07 02:56:00,
2013-05-06 22:00:00,59.5,48.5,29.88,SSW,210,0.0,0.0,67,0.00,,SKC,0.00,VWS V14.01,2013-05-07 03:00:00,
2013-05-06 22:01:00,59.8,47.2,29.88,SSW,210,0.0,0.0,63,0.00,,SKC,0.00,VWS V14.01,2013-05-07 03:01:00,
2013-05-06 22:06:00,59.6,48.6,29.88,SSW,210,0.0,0.0,67,0.00,,SKC,0.00,VWS V14.01,2013-05-07 03:06:00,
2013-05-06 22:11:00,59.0,48.9,29.88,SSW,210,0.0,0.0,69,0.00,,SKC,0.00,VWS V14.01,2013-05-07 03:11:00,
2013-05-06 22:16:00,58.9,48.4,29.88,SSW,210,0.0,0.0,68,0.00,,SKC,0.00,VWS V14.01,2013-05-07 03:16:00,
2013-05-06 22:21:00,58.6,47.7,29.88,SSW,210,0.0,0.0,67,0.00,,SKC,0.00,VWS V14.01,2013-05-07 03:21:00,
2013-05-06 22:26:00,58.6,48.1,29.88,SSW,210,0.0,0.0,68,0.00,,SKC,0.00,VWS V14.01,2013-05-07 03:26:00,
2013-05-06 22:30:00,58.2,48.1,29.88,SSW,210,0.0,0.0,69,0.00,,SKC,0.00,VWS V14.01,2013-05-07 03:30:00,
2013-05-06 22:31:00,58.4,47.9,29.88,SSW,210,0.0,0.0,68,0.00,,SKC,0.00,VWS V14.01,2013-05-07 03:31:00,
2013-05-06 22:36:00,58.1,48.0,29.88,SSW,210,0.0,0.0,69,0.00,,SKC,0.00,VWS V14.01,2013-05-07 03:36:00,
2013-05-06 22:41:00,57.9,47.4,29.88,SSW,210,0.0,0.0,68,0.00,,SKC,0.00,VWS V14.01,2013-05-07 03:41:00,
2013-05-06 22:46:00,57.7,48.0,29.88,SSW,210,0.0,0.0,70,0.00,,SKC,0.00,VWS V14.01,2013-05-07 03:46:00,
2013-05-06 22:51:00,57.4,47.3,29.88,SSW,210,0.0,0.0,69,0.00,,SKC,0.00,VWS V14.01,2013-05-07 03:51:00,
2013-05-06 22:56:00,57.2,47.5,29.88,SSW,210,0.0,0.0,70,0.00,,SKC,0.00,VWS V14.01,2013-05-07 03:56:00,
2013-05-06 23:00:00,56.7,47.8,29.89,SSW,210,0.0,0.0,72,0.00,,SKC,0.00,VWS V14.01,2013-05-07 04:00:00,
2013-05-06 23:01:00,56.9,48.0,29.88,SSW,210,0.0,0.0,72,0.00,,SKC,0.00,VWS V14.01,2013-05-07 04:01:00,
2013-05-06 23:02:00,56.9,48.0,29.88,SSW,210,0.0,0.0,72,0.00,,SKC,0.00,VWS V14.01,2013-05-07 04:02:00,
2013-05-06 23:05:00,56.8,47.9,29.89,SSW,210,0.0,0.0,72,0.00,,SKC,0.00,VWS V14.01,2013-05-07 04:05:00,
2013-05-06 23:08:00,56.6,47.7,29.88,SSW,210,0.0,0.0,72,0.00,,SKC,0.00,VWS V14.01,2013-05-07 04:08:00,
2013-05-06 23:10:00,56.6,48.4,29.88,SSW,210,0.0,0.0,74,0.00,,SKC,0.00,VWS V14.01,2013-05-07 04:10:00,
2013-05-06 23:15:00,56.1,50.0,29.88,SSW,210,0.0,0.0,80,0.00,,SKC,0.00,VWS V14.01,2013-05-07 04:15:00,
2013-05-06 23:21:00,55.7,50.6,29.88,SSW,210,0.0,0.0,83,0.00,,SKC,0.00,VWS V14.01,2013-05-07 04:21:00,
2013-05-06 23:26:00,55.4,49.7,29.88,SSW,210,0.0,0.0,81,0.00,,SKC,0.00,VWS V14.01,2013-05-07 04:26:00,
2013-05-06 23:30:00,55.1,49.4,29.89,SSW,210,0.0,0.0,81,0.00,,SKC,0.00,VWS V14.01,2013-05-07 04:30:00,
2013-05-06 23:31:00,55.2,49.5,29.88,SSW,210,0.0,0.0,81,0.00,,SKC,0.00,VWS V14.01,2013-05-07 04:31:00,
2013-05-06 23:36:00,55.1,49.4,29.89,SSW,210,0.0,0.0,81,0.00,,SKC,0.00,VWS V14.01,2013-05-07 04:36:00,
2013-05-06 23:41:00,54.9,48.9,29.89,SSW,210,0.0,0.0,80,0.00,,SKC,0.00,VWS V14.01,2013-05-07 04:41:00,
2013-05-06 23:46:00,54.8,48.8,29.89,SSW,210,0.0,0.0,80,0.00,,SKC,0.00,VWS V14.01,2013-05-07 04:46:00,
2013-05-06 23:51:00,54.6,48.2,29.89,SSW,210,0.0,0.0,79,0.00,,SKC,0.00,VWS V14.01,2013-05-07 04:51:00,
2013-05-06 23:56:00,54.5,47.8,29.89,SSW,210,0.0,0.0,78,0.00,,SKC,0.00,VWS V14.01,2013-05-07 04:56:00,